Location: Unspecified
(0.0000°N, 0.0000°E)
Time: 15:29:43
(UTC+02:00)

Cosmos 1072 Rocket - Visible Passes

Search period start: 29 April 2017 00:00
Search period end: 09 May 2017 00:00
Orbit: 948 x 1009 km, 82.9° (Epoch: 27 April)

Date Brightness Start Highest point End Pass type
(mag) Time Alt. Az. Time Alt. Az. Time Alt. Az.
29 Apr 7.5 20:52:37 10° SW 20:56:30 17° W 21:00:24 10° NW visible
30 Apr 7.4 06:28:34 10° NE 06:31:51 15° E 06:35:10 10° ESE visible
01 May 6.2 06:52:39 10° NNE 06:58:07 35° E 07:03:36 10° SSE visible
02 May 4.6 07:18:18 10° N 07:24:22 80° E 07:30:31 10° S visible
02 May 7.4 20:25:50 10° SW 20:30:14 19° W 20:34:36 10° NW visible
03 May 7.4 06:03:01 10° ENE 06:05:33 13° E 06:08:05 10° ESE visible
04 May 6.3 06:26:34 10° NNE 06:31:48 30° E 06:37:05 10° SSE visible
05 May 4.8 06:52:01 10° N 06:58:03 70° E 07:04:11 10° S visible
06 May 7.5 05:38:00 10° ENE 05:39:14 11° E 05:40:27 10° E visible
06 May 4.6 07:18:27 10° NNW 07:24:20 52° W 07:30:18 10° SSW visible
07 May 6.5 06:00:30 10° NNE 06:05:30 27° E 06:10:31 10° SE visible
08 May 5.0 06:25:45 10° N 06:31:45 61° E 06:37:49 10° SSE visible
